sat.trackr.live / text

‹ back to catalog

STARLINK-36985

NORAD 68014 · 2026-039AE

PAYLOAD ACTIVE UNKNOWN

§ Identity

Operator
Country
US
Launch date
2026-02-27
Launch site
AFETR
Launch vehicle
Mass (kg)
RCS (m²)

Purposes: comms

External: N2YO · Heavens-Above · Gunter

§ Orbital elements

Epoch: 2026-09-20T01:32:10.209120Z

Period
94.27 min
Inclination
43.0007°
Eccentricity
0.0001507
Mean motion
15.27588764 rev/d
Perigee alt
482.0 km
Apogee alt
484.1 km
Semi-major
6,861.2 km
B*
6.8210e-4
RAAN
30.9100°
Arg perigee
275.7464°
Mean anomaly
84.3216°
Rev number
3,143

§ Raw data

STARLINK-369851 68014U 26039AE  26263.06400705  .00018560  00000+0  68210-3 0  99992 68014  43.0007  30.9100 0001507 275.7464  84.3216 15.27588764 31434

JSON: /api/v1/satellites/68014 · /tle

For live sub-satellite position, see the globe view (requires WebGL).

§ Visibility from observer

Set your observer location to see the next 7 days of passes ≥ 10°. The values pass through the URL so the page stays shareable.

No JS? Fill the form by hand. The geolocation button needs JavaScript.